Showing default

PAUSAT-1, 62653

Orbit data source: Space-Track

PAUSAT-1, 62653 is a Turkish payload satellite in SSO that was launched on Tue, 14 Jan 2025 UTC via an FALCON 9 launch vehicle from the Air Force Western Test Range (AFWTR). Payload-class satellites include a variety of spacecraft equipped with specific instruments for various scientific and technological missions. These include communications satellites like Starlink; space stations such as the ISS; scientific satellites like the Hubble; Earth observation satellites from companies like Planet Labs, Umbra, and HawkEye 360; GPS; miniature CubeSats for education and research; and military/defense satellites.

Loading next visibility...
Identifier
62653, 2025-009AW
Orbit
SSO
Country
Flag of TRTR / TURK
Related business
Manufacturer
ITUTR/PAU
Mission
Operational Amateur Imaging
Bus & Motor
CUBESAT 16U, Unknown motor
Mass
~30 kg wet, ~30 kg dry
Launch date (UTC)
2025-01-14 (2 years ago)
Launch vehicle
FALCON 9
Launch site
Air Force Western Test Range (AFWTR)
Object type
Payload
Rocket body
Debris
Shape & HBR
Box + 2 Pan, 0.3 m
Radar Cross Section
0.124 m², Medium (>0.1 m² and < 1m²)

Expand to show TLE details & history
Last TLE update: 9 hours ago

TLE from 9 hours ago
0 PAUSAT-1
1 62653U 25009AW  26249.53809764  .00002355  00000-0  99922-4 0  9993
2 62653  97.3905 328.0331 0002830  65.6863 294.4669 15.24088158 91174
Epoch: 2026-09-06T12:54Z
TLE epoch observation values (Epoch: 2026-09-06T12:54:51.636Z)
Latitude
-0.00007°
Longitude
148.68618°
Altitude
495.816 km
Speed
7.617 km/s
True Right ascension
21h 52m 07s
True Declination
0° 00' 00"
Sunlit
Object was in full shadow at epoch
Visualization orbit readout
Latitude
Unknown
Longitude
Unknown
Altitude
Unknown
Speed
Unknown
Apparent Right ascension
Unknown
Apparent Declination
Unknown
Sunlit
N/A
Visualization observer readout
Local Sidereal Time
13:40:11
Azimuth
Unknown
Elevation
Unknown
Doppler factor
Unknown
Orbital elements
Apogee altitude
492.428 km
Perigee altitude
488.541 km
Semi-major axis
6,868.622 km
Eccentricity
0.00028
Inclination
97.3905°
RAAN
328.0331°
Arg. of periapsis
65.6863°
True anomaly
294.43738°
Mean anomaly
294.4669°
Eccentric anomaly
294.45214°
Mean motion
3.81275 °/min
Orbital period
94.42 mins
BSTAR
0.000099922
Loading maneuver chart data...
Computing Atmospheric mass density...
Loading historical data...
Loading historical data...
Loading historical data...
Loading historical data...
Loading historical data...
Loading historical data...
Loading historical data...

Documentation

Showing up to 5 results
|